Regional Weather Roundup
Issued by NWS

Home | Current Version | Previous Version | Text Only | Print | Product List | Glossary Off
Versions: 1 2 3 4 5 6 7 8 9 10 11 12 13 14 15 16 17 18 19 20 21 22 23 24 25 26 27 28

000
ASUS45 KSLC 240910
RWRUT

UTAH REGIONAL WEATHER ROUNDUP
NATIONAL WEATHER SERVICE SALT LAKE CITY UT
300 AM MDT WED MAY 24 2017

UTZ001>011-023>025-241000-

NORTHERN UTAH

CITY           SKY/WX    TMP DP  RH WIND       PRES   REMARKS
BRIGHAM CITY   CLEAR     56  44  64 CALM      29.93F
HILL AFB       CLEAR     58  34  40 E13       29.95F
LOGAN          CLEAR     53  44  71 CALM      29.94F
OGDEN          CLEAR     56  37  49 S12       29.93F
SALT LAKE CITY CLEAR     62  41  46 SE8       29.92F
TOOELE VALLEY  CLEAR     59  39  47 S7        29.93F
WENDOVER       CLEAR     64  37  36 W7        29.92F
HEBER CITY     CLEAR     43  34  70 CALM      30.04S
WEST JORDAN    CLEAR     62  47  59 S8        29.96F

$$

UTZ011>015-024>027-241000-

CENTRAL/NORTHEAST UTAH

CITY           SKY/WX    TMP DP  RH WIND       PRES   REMARKS
PROVO AIRPORT  CLEAR     55  42  61 S6        29.98F
MOAB/CANYONLAN CLEAR     56  28  34 CALM      29.97F
DELTA          CLEAR     50  41  71 NE5       29.98F
PRICE          CLEAR     48  34  58 NE8       30.05F
ROOSEVELT      CLEAR     43  36  75 W6        30.03F
VERNAL         CLEAR     48  36  63 CALM      30.01F

$$

UTZ013>016-019>022-027-241000-

SOUTHERN UTAH

CITY           SKY/WX    TMP DP  RH WIND       PRES   REMARKS
BRYCE CANYON   CLEAR     40  28  62 CALM      30.20F
CEDAR CITY     CLEAR     53  33  46 NE3       30.04F
MILFORD        CLEAR     47  32  56 SW6       30.00F
ST GEORGE      SUNNY     71  29  21 E6        29.88F
HANKSVILLE     CLEAR     55  28  35 CALM      30.01S
BLANDING       CLEAR     48  31  51 CALM      30.15F

$$

REGIONAL REPORTS     COLORADO/ARIZONA

CITY           SKY/WX    TMP DP  RH WIND       PRES   REMARKS
CRAIG, CO      CLEAR     35  31  85 CALM      30.07F
GRAND JUNCTION CLEAR     53  31  42 SE10      30.02F
RIFLE, CO      CLEAR     43  30  60 SE5       30.09F
MONTROSE, CO   CLEAR     48  30  49 SE7       30.10F
CORTEZ, CO     CLEAR     39  32  76 CALM      30.10F
COLORADO CITY    N/A     50  32  50 SE7       30.05S
PAGE, AZ       CLEAR     66  35  31 N3        29.98F
GRAND CANYON   CLEAR     38  27  64 CALM      30.16F
KINGMAN, AZ    CLEAR     62  23  22 MISG      29.92F
FLAGSTAFF, AZ  CLEAR     39  26  59 CALM      30.19F

$$

REGIONAL REPORTS    NEVADA/IDAHO/WYOMING

CITY           SKY/WX    TMP DP  RH WIND       PRES   REMARKS
LAS VEGAS, NV  CLEAR     83  23  11 SW5       29.79F
ELY, NY        CLEAR     44  27  51 S13       30.09F
ELKO, NV       CLEAR     48  40  73 CALM      29.99F
POCATELLO, ID  CLEAR     62  38  40 S13       29.87F
BURLEY, ID     CLEAR     60  40  47 SW13      29.84F
FORT BRIDGER,    N/A     55  27  34 SW13      30.08F
EVANSTON, WY   CLOUDY    48  30  49 SW6       30.07F
ROCK SPRINGS,  CLEAR     52  34  50 W20       30.02F
KEMMERER, WY     N/A     46  34  61 W5        30.07F

$$




USA.gov is the U.S. government's official web portal to all federal, state and local government web resources and services.